This is the latest recevied weather packets stored in our database for station/object K2RMB. If no packets are shown the sender has not sent any weather packets the latest 10 day(s).
| Time | Temp. | Humidity | Pressure | Rain* | Wind** | Luminosity | Snow |
|---|---|---|---|---|---|---|---|
| 1777828363 | 7.22° C | 45% | 1010.1 hPa | 0 mm | - | 313 W/m² | - |
| 1777828060 | 7.22° C | 46% | 1009.8 hPa | 0 mm | - | 217 W/m² | - |
| 1777827757 | 7.22° C | 46% | 1009.8 hPa | 0 mm | - | 185 W/m² | - |
| 1777827454 | 7.22° C | 50% | 1009.8 hPa | 0 mm | - | 169 W/m² | - |
| 1777827151 | 7.22° C | 47% | 1009.8 hPa | 0 mm | - | 206 W/m² | - |
| 1777826847 | 7.22° C | 51% | 1009.8 hPa | 0 mm | - | 501 W/m² | - |
| 1777826545 | 7.22° C | 49% | 1010.1 hPa | 0 mm | - | 286 W/m² | - |
| 1777826241 | 7.22° C | 49% | 1009.8 hPa | 0 mm | - | 304 W/m² | - |
| 1777825939 | 7.22° C | 49% | 1010.1 hPa | 0 mm | - | 281 W/m² | - |
| 1777825635 | 6.67° C | 52% | 1010.1 hPa | 0 mm | - | 240 W/m² | - |
| 1777825334 | 6.67° C | 52% | 1010.1 hPa | 0 mm | - | 222 W/m² | - |
| 1777825030 | 6.67° C | 53% | 1010.1 hPa | 0 mm | - | 183 W/m² | - |
| 1777824726 | 6.67° C | 53% | 1010.1 hPa | 0 mm | - | 132 W/m² | - |
| 1777824424 | 6.67° C | 52% | 1010.1 hPa | 0 mm | - | 99 W/m² | - |
| 1777824119 | 6.67° C | 52% | 1010.1 hPa | 0 mm | - | 112 W/m² | - |
| 1777823815 | 6.67° C | 53% | 1010.1 hPa | 0 mm | - | 148 W/m² | - |
| 1777823513 | 6.67° C | 54% | 1010.4 hPa | 0 mm | - | 205 W/m² | - |
| 1777823210 | 6.67° C | 51% | 1010.1 hPa | 0 mm | - | 312 W/m² | - |
| 1777822908 | 6.67° C | 52% | 1010.1 hPa | 0 mm | - | 296 W/m² | - |
| 1777822606 | 6.67° C | 52% | 1010.1 hPa | 0 mm | - | 172 W/m² | - |
| 1777822303 | 6.67° C | 48% | 1010.4 hPa | 0 mm | - | 187 W/m² | - |
| 1777822000 | 6.67° C | 50% | 1010.1 hPa | 0 mm | - | 183 W/m² | - |
| 1777821698 | 7.22° C | 47% | 1010.4 hPa | 0 mm | - | 187 W/m² | - |
| 1777821396 | 7.22° C | 49% | 1010.1 hPa | 0 mm | - | 197 W/m² | - |
| 1777821092 | 6.67° C | 51% | 1010.1 hPa | 0 mm | - | 235 W/m² | - |
* Rain latest hour (hover to see other rain measurements)
** Current wind speed in m/s (hover to see current wind gust speed)